"read_dt","SO2 (ppb)","flags","PMT voltage (V)","lamp voltage (V)","lamp intensity (Hz)","internal temp (C)","react chamber temp (C)","sample flow (l/min)","pres (mmHg)","SO2 bkg (ppb)","SO2 coefficient"
2014-02-24 00:00:00,5165E-2,5C000490,-0724,1375,5989,020.6,045.1,0.132,768.8,01.15,0.508
2014-02-24 00:01:00,5162E-2,5C000490,-0724,1375,5981,020.6,045.1,0.132,768.8,01.15,0.508
2014-02-24 00:02:00,5210E-2,5C000490,-0724,1375,5985,020.6,045.1,0.132,768.8,01.15,0.508
2014-02-24 00:03:00,5213E-2,5C000490,-0724,1375,5958,020.6,045.1,0.132,768.7,01.15,0.508
2014-02-24 00:04:00,5184E-2,5C000490,-0724,1375,5835,020.6,045.0,0.132,768.7,01.15,0.508
2014-02-24 00:05:00,5179E-2,5C000490,-0724,1375,5913,020.6,045.0,0.132,768.7,01.15,0.508
2014-02-24 00:06:00,5115E-2,5C000490,-0724,1375,5885,020.6,045.0,0.132,768.8,01.15,0.508
2014-02-24 00:07:00,5204E-2,5C000490,-0724,1375,5883,020.6,045.1,0.132,768.8,01.15,0.508
2014-02-24 00:08:00,5148E-2,5C000490,-0724,1375,5834,020.6,045.1,0.132,768.8,01.15,0.508
2014-02-24 00:09:00,5087E-2,5C000490,-0724,1375,5798,020.6,045.1,0.132,768.8,01.15,0.508
2014-02-24 00:10:00,5173E-2,5C000490,-0724,1375,5838,020.6,045.1,0.132,768.9,01.15,0.508
2014-02-24 00:11:00,5187E-2,5C000490,-0724,1375,5793,020.6,045.1,0.132,768.8,01.15,0.508
2014-02-24 00:12:00,5151E-2,5C000490,-0724,1375,5760,020.6,045.1,0.132,768.8,01.15,0.508
2014-02-24 00:13:00,5150E-2,5C000490,-0724,1375,5823,020.7,045.0,0.132,768.8,01.15,0.508
2014-02-24 00:14:00,5133E-2,5C000490,-0724,1375,5815,020.6,045.1,0.132,768.9,01.15,0.508
2014-02-24 00:15:00,5186E-2,5C000490,-0724,1375,5828,020.6,045.1,0.132,768.8,01.15,0.508
2014-02-24 00:16:00,5158E-2,5C000490,-0724,1375,5737,020.6,045.1,0.132,768.9,01.15,0.508
2014-02-24 00:17:00,5193E-2,5C000490,-0724,1375,5805,020.7,045.1,0.132,768.8,01.15,0.508
2014-02-24 00:18:00,5153E-2,5C000490,-0724,1375,5714,020.6,045.1,0.132,768.9,01.15,0.508
2014-02-24 00:19:00,5157E-2,5C000490,-0724,1375,5830,020.6,045.1,0.132,768.8,01.15,0.508
2014-02-24 00:20:00,5154E-2,5C000490,-0724,1375,5809,020.6,045.1,0.132,768.8,01.15,0.508
2014-02-24 00:21:00,5181E-2,5C000490,-0724,1375,5797,020.6,045.1,0.132,768.8,01.15,0.508
2014-02-24 00:22:00,5141E-2,5C000490,-0724,1375,5747,020.6,045.1,0.132,768.9,01.15,0.508
2014-02-24 00:23:00,5190E-2,5C000490,-0724,1375,5781,020.7,045.1,0.132,768.9,01.15,0.508
2014-02-24 00:24:00,5198E-2,5C000490,-0724,1375,5780,020.7,045.1,0.132,768.9,01.15,0.508
2014-02-24 00:25:00,5063E-2,5C000490,-0724,1375,5748,020.7,045.1,0.132,768.9,01.15,0.508
2014-02-24 00:26:00,5148E-2,5C000490,-0724,1375,5781,020.6,045.1,0.132,768.9,01.15,0.508
2014-02-24 00:27:00,5153E-2,5C000490,-0724,1375,5744,020.7,045.1,0.132,768.9,01.15,0.508
2014-02-24 00:28:00,5190E-2,5C000490,-0724,1375,5760,020.7,045.1,0.132,769.0,01.15,0.508
2014-02-24 00:29:00,5150E-2,5C000490,-0724,1375,5749,020.7,045.1,0.132,769.0,01.15,0.508
2014-02-24 00:30:00,5174E-2,5C000490,-0724,1375,5702,020.7,045.1,0.132,769.0,01.15,0.508
2014-02-24 00:31:00,5121E-2,5C000490,-0724,1375,5735,020.7,045.1,0.132,769.0,01.15,0.508
2014-02-24 00:32:00,5146E-2,5C000490,-0724,1375,5684,020.7,045.1,0.132,769.0,01.15,0.508
2014-02-24 00:33:00,5130E-2,5C000490,-0724,1375,5768,020.7,045.1,0.132,769.0,01.15,0.508
2014-02-24 00:34:00,5167E-2,5C000490,-0724,1375,5682,020.7,045.1,0.132,769.1,01.15,0.508
2014-02-24 00:35:00,5162E-2,5C000490,-0724,1375,5684,020.7,045.1,0.132,769.0,01.15,0.508
2014-02-24 00:36:00,5200E-2,5C000490,-0724,1375,5774,020.7,045.1,0.132,768.8,01.15,0.508
2014-02-24 00:37:00,5137E-2,5C000490,-0724,1375,5709,020.7,045.1,0.132,768.9,01.15,0.508
2014-02-24 00:38:00,5160E-2,5C000490,-0724,1375,5667,020.7,045.1,0.132,769.0,01.15,0.508
2014-02-24 00:39:00,5132E-2,5C000490,-0724,1375,5694,020.7,045.1,0.132,769.0,01.15,0.508
2014-02-24 00:40:00,5161E-2,5C000490,-0724,1375,5672,020.7,045.1,0.132,768.9,01.15,0.508
2014-02-24 00:41:00,5125E-2,5C000490,-0724,1375,5652,020.7,045.0,0.132,768.9,01.15,0.508
2014-02-24 00:42:00,5114E-2,5C000490,-0724,1375,5596,020.7,045.1,0.132,769.0,01.15,0.508
2014-02-24 00:43:00,5141E-2,5C000490,-0724,1375,5630,020.7,045.1,0.131,768.9,01.15,0.508
2014-02-24 00:44:00,5108E-2,5C000490,-0724,1375,5664,020.7,045.1,0.132,769.0,01.15,0.508
2014-02-24 00:45:00,5117E-2,5C000490,-0724,1375,5757,020.7,045.1,0.132,768.9,01.15,0.508
2014-02-24 00:46:00,5110E-2,5C000490,-0724,1375,5669,020.7,045.1,0.132,768.8,01.15,0.508
2014-02-24 00:47:00,5129E-2,5C000490,-0724,1375,5656,020.7,045.0,0.132,769.0,01.15,0.508
2014-02-24 00:48:00,5171E-2,5C000490,-0724,1375,5714,020.7,045.1,0.132,769.0,01.15,0.508
2014-02-24 00:49:00,5095E-2,5C000490,-0724,1375,5625,020.7,045.1,0.132,768.9,01.15,0.508
2014-02-24 00:50:00,5097E-2,5C000490,-0724,1375,5643,020.7,045.1,0.132,768.9,01.15,0.508
2014-02-24 00:51:00,5094E-2,5C000490,-0724,1375,5604,020.7,045.1,0.132,768.9,01.15,0.508
2014-02-24 00:52:00,5052E-2,5C000490,-0724,1375,5741,020.7,045.1,0.132,768.9,01.15,0.508
2014-02-24 00:53:00,5013E-2,5C000490,-0724,1375,5654,020.8,045.1,0.132,768.9,01.15,0.508
2014-02-24 00:54:00,5029E-2,5C000490,-0724,1375,5665,020.8,045.0,0.132,769.1,01.15,0.508
2014-02-24 00:55:00,5096E-2,5C000490,-0724,1375,5623,020.7,045.1,0.132,769.1,01.15,0.508
2014-02-24 00:56:00,5076E-2,5C000490,-0724,1375,5702,020.7,045.1,0.132,769.0,01.15,0.508
2014-02-24 00:57:00,5045E-2,5C000490,-0724,1375,5604,020.7,045.1,0.131,769.0,01.15,0.508
2014-02-24 00:58:00,5087E-2,5C000490,-0724,1375,5543,020.7,045.1,0.131,769.0,01.15,0.508
2014-02-24 00:59:00,5065E-2,5C000490,-0724,1375,5567,020.8,045.1,0.131,769.0,01.15,0.508
2014-02-24 01:00:00,5065E-2,5C000490,-0724,1375,5732,020.8,045.1,0.131,769.1,01.15,0.508
2014-02-24 01:01:00,5054E-2,5C000490,-0724,1375,5679,020.8,045.1,0.132,769.1,01.15,0.508
2014-02-24 01:02:00,5049E-2,5C000490,-0724,1375,5735,020.8,045.1,0.132,769.0,01.15,0.508
2014-02-24 01:03:00,5049E-2,5C000490,-0724,1375,5696,020.8,045.1,0.131,769.1,01.15,0.508
2014-02-24 01:04:00,5026E-2,5C000490,-0724,1375,5737,020.8,045.1,0.132,769.0,01.15,0.508
2014-02-24 01:05:00,5064E-2,5C000490,-0724,1375,5634,020.8,045.0,0.131,769.0,01.15,0.508
2014-02-24 01:06:00,5014E-2,5C000490,-0724,1375,5746,020.8,045.1,0.131,768.9,01.15,0.508
2014-02-24 01:07:00,5027E-2,5C000490,-0724,1375,5634,020.8,045.1,0.131,769.0,01.15,0.508
2014-02-24 01:08:00,5016E-2,5C000490,-0724,1375,5668,020.8,045.1,0.131,768.9,01.15,0.508
2014-02-24 01:09:00,5006E-2,5C000490,-0724,1375,5697,020.8,045.1,0.131,768.9,01.15,0.508
2014-02-24 01:10:00,5020E-2,5C000490,-0724,1375,5715,020.8,045.1,0.131,768.9,01.15,0.508
2014-02-24 01:11:00,5025E-2,5C000490,-0724,1375,5697,020.8,045.1,0.131,768.9,01.15,0.508
2014-02-24 01:12:00,5014E-2,5C000490,-0724,1375,5697,020.8,045.1,0.131,769.1,01.15,0.508
2014-02-24 01:13:00,5058E-2,5C000490,-0724,1375,5702,020.8,045.1,0.131,768.9,01.15,0.508
2014-02-24 01:14:00,5034E-2,5C000490,-0724,1375,5651,020.8,045.1,0.131,768.8,01.15,0.508
2014-02-24 01:15:00,5036E-2,5C000490,-0724,1375,5615,020.8,045.1,0.131,768.9,01.15,0.508
2014-02-24 01:16:00,5128E-2,5C000490,-0724,1375,5723,020.9,045.1,0.131,769.0,01.15,0.508
2014-02-24 01:17:00,5115E-2,5C000490,-0724,1375,5682,020.8,045.1,0.131,768.8,01.15,0.508
2014-02-24 01:18:00,5114E-2,5C000490,-0724,1375,5742,020.9,045.1,0.131,768.8,01.15,0.508
2014-02-24 01:19:00,5049E-2,5C000490,-0724,1375,5713,020.8,045.1,0.131,768.8,01.15,0.508
2014-02-24 01:20:00,5095E-2,5C000490,-0724,1375,5735,020.8,045.1,0.131,768.9,01.15,0.508
2014-02-24 01:21:00,5088E-2,5C000490,-0724,1375,5689,020.9,045.1,0.131,768.8,01.15,0.508
2014-02-24 01:22:00,5096E-2,5C000490,-0724,1375,5691,020.8,045.1,0.131,768.9,01.15,0.508
2014-02-24 01:23:00,5061E-2,5C000490,-0724,1375,5705,020.9,045.1,0.131,768.9,01.15,0.508
2014-02-24 01:24:00,5087E-2,5C000490,-0724,1375,5667,020.9,045.1,0.131,768.8,01.15,0.508
2014-02-24 01:25:00,5247E-2,5C000490,-0724,1375,5662,020.8,045.1,0.131,768.9,01.15,0.508
2014-02-24 01:26:00,5187E-2,5C000490,-0724,1375,5704,020.9,045.1,0.131,768.8,01.15,0.508
2014-02-24 01:27:00,5222E-2,5C000490,-0724,1375,5680,020.9,045.1,0.131,768.8,01.15,0.508
2014-02-24 01:28:00,5198E-2,5C000490,-0724,1375,5670,020.9,045.1,0.131,768.8,01.15,0.508
2014-02-24 01:29:00,5179E-2,5C000490,-0724,1375,5528,020.9,045.1,0.131,768.9,01.15,0.508
2014-02-24 01:30:00,5205E-2,5C000490,-0724,1375,5662,020.9,045.1,0.131,768.9,01.15,0.508
2014-02-24 01:31:00,5155E-2,5C000490,-0724,1375,5585,020.9,045.1,0.131,768.8,01.15,0.508
2014-02-24 01:32:00,5207E-2,5C000490,-0724,1375,5608,020.9,045.1,0.131,768.9,01.15,0.508
2014-02-24 01:33:00,5147E-2,5C000490,-0724,1375,5567,020.9,045.0,0.131,768.8,01.15,0.508
2014-02-24 01:34:00,5214E-2,5C000490,-0724,1375,5539,020.9,045.1,0.131,768.8,01.15,0.508
2014-02-24 01:35:00,5229E-2,5C000490,-0724,1375,5661,020.9,045.1,0.131,768.9,01.15,0.508
2014-02-24 01:36:00,5138E-2,5C000490,-0724,1375,5608,020.9,045.1,0.131,769.0,01.15,0.508
2014-02-24 01:37:00,5153E-2,5C000490,-0724,1375,5604,020.9,045.1,0.131,768.9,01.15,0.508
2014-02-24 01:38:00,5168E-2,5C000490,-0724,1375,5634,020.9,045.1,0.131,768.8,01.15,0.508
2014-02-24 01:39:00,5246E-2,5C000490,-0724,1375,5539,020.9,045.1,0.131,768.8,01.15,0.508
2014-02-24 01:40:00,5276E-2,5C000490,-0724,1375,5455,020.9,045.1,0.131,768.9,01.15,0.508
2014-02-24 01:41:00,5282E-2,5C000490,-0724,1375,5381,020.9,045.1,0.131,768.9,01.15,0.508
2014-02-24 01:42:00,5270E-2,5C000490,-0724,1375,5379,020.9,045.1,0.131,768.9,01.15,0.508
2014-02-24 01:43:00,5269E-2,5C000490,-0724,1375,5363,020.9,045.1,0.131,768.8,01.15,0.508
2014-02-24 01:44:00,5353E-2,5C000490,-0724,1375,5372,020.9,045.1,0.131,768.7,01.15,0.508
2014-02-24 01:45:00,5314E-2,5C000490,-0724,1375,5403,021.0,045.1,0.131,768.8,01.15,0.508
2014-02-24 01:46:00,5350E-2,5C000490,-0724,1375,5404,021.0,045.1,0.131,768.9,01.15,0.508
2014-02-24 01:47:00,5310E-2,5C000490,-0724,1375,5341,020.9,045.1,0.131,768.8,01.15,0.508
2014-02-24 01:48:00,5327E-2,5C000490,-0724,1375,5439,020.9,045.1,0.131,768.8,01.15,0.508
2014-02-24 01:49:00,5305E-2,5C000490,-0724,1375,5411,021.0,045.1,0.131,768.8,01.15,0.508
2014-02-24 01:50:00,5315E-2,5C000490,-0724,1375,5368,021.0,045.0,0.131,768.8,01.15,0.508
2014-02-24 01:51:00,5253E-2,5C000490,-0724,1375,5351,021.0,045.1,0.131,768.9,01.15,0.508
2014-02-24 01:52:00,5302E-2,5C000490,-0724,1375,5428,021.0,045.1,0.131,768.8,01.15,0.508
2014-02-24 01:53:00,5309E-2,5C000490,-0724,1375,5421,021.0,045.1,0.131,768.8,01.15,0.508
2014-02-24 01:54:00,5286E-2,5C000490,-0724,1375,5369,021.0,045.1,0.131,768.8,01.15,0.508
2014-02-24 01:55:00,5334E-2,5C000490,-0724,1375,5332,021.0,045.1,0.130,768.8,01.15,0.508
2014-02-24 01:56:00,5319E-2,5C000490,-0724,1375,5336,021.0,045.1,0.131,768.7,01.15,0.508
2014-02-24 01:57:00,5282E-2,5C000490,-0724,1375,5356,021.0,045.0,0.130,768.8,01.15,0.508
2014-02-24 01:58:00,5317E-2,5C000490,-0724,1375,5352,021.0,045.1,0.130,768.7,01.15,0.508
2014-02-24 01:59:00,5328E-2,5C000490,-0724,1375,5707,021.0,045.1,0.130,768.8,01.15,0.508
2014-02-24 02:00:00,5411E-2,5C000490,-0724,1375,5611,021.0,045.1,0.130,768.8,01.15,0.508
2014-02-24 02:01:00,5404E-2,5C000490,-0724,1375,5685,021.1,045.1,0.130,768.7,01.15,0.508
2014-02-24 02:02:00,5551E-2,5C000490,-0724,1375,5728,021.0,045.1,0.130,768.8,01.15,0.508
2014-02-24 02:03:00,5515E-2,5C000490,-0724,1375,5639,021.0,045.1,0.130,768.8,01.15,0.508
2014-02-24 02:04:00,5509E-2,5C000490,-0724,1375,5632,021.1,045.1,0.130,768.7,01.15,0.508
2014-02-24 02:05:00,5505E-2,5C000490,-0724,1375,5669,021.1,045.1,0.130,768.8,01.15,0.508
2014-02-24 02:06:00,5539E-2,5C000490,-0724,1375,5638,021.1,045.1,0.130,768.8,01.15,0.508
2014-02-24 02:07:00,5461E-2,5C000490,-0724,1375,5710,021.1,045.1,0.130,768.7,01.15,0.508
2014-02-24 02:08:00,5503E-2,5C000490,-0724,1375,5669,021.1,045.1,0.130,768.8,01.15,0.508
2014-02-24 02:09:00,5458E-2,5C000490,-0724,1375,5574,021.1,045.1,0.130,768.9,01.15,0.508
2014-02-24 02:10:00,5509E-2,5C000490,-0724,1375,5632,021.1,045.1,0.130,768.8,01.15,0.508
2014-02-24 02:11:00,5359E-2,5C000490,-0724,1375,5562,021.1,045.1,0.130,768.8,01.15,0.508
2014-02-24 02:12:00,5390E-2,5C000490,-0724,1375,5599,021.1,045.1,0.130,768.7,01.15,0.508
2014-02-24 02:13:00,5323E-2,5C000490,-0724,1375,5709,021.1,045.1,0.130,768.7,01.15,0.508
2014-02-24 02:14:00,5313E-2,5C000490,-0724,1375,5655,021.1,045.1,0.130,768.8,01.15,0.508
2014-02-24 02:15:00,5336E-2,5C000490,-0724,1375,5592,021.1,045.1,0.130,768.9,01.15,0.508
2014-02-24 02:16:00,5352E-2,5C000490,-0724,1375,5565,021.1,045.1,0.130,768.9,01.15,0.508
2014-02-24 02:17:00,5385E-2,5C000490,-0724,1375,5532,021.1,045.1,0.130,768.8,01.15,0.508
2014-02-24 02:18:00,5325E-2,5C000490,-0724,1375,5550,021.1,045.1,0.130,768.8,01.15,0.508
2014-02-24 02:19:00,5361E-2,5C000490,-0724,1375,5636,021.1,045.1,0.130,768.8,01.15,0.508
2014-02-24 02:20:00,5361E-2,5C000490,-0724,1375,5605,021.1,045.1,0.130,768.8,01.15,0.508
2014-02-24 02:21:00,5350E-2,5C000490,-0724,1375,5577,021.1,045.1,0.130,768.8,01.15,0.508
2014-02-24 02:22:00,5388E-2,5C000490,-0724,1375,5564,021.1,045.1,0.130,768.8,01.15,0.508
2014-02-24 02:23:00,5359E-2,5C000490,-0724,1375,5508,021.1,045.1,0.130,768.8,01.15,0.508
2014-02-24 02:24:00,5324E-2,5C000490,-0724,1375,5594,021.2,045.1,0.130,768.8,01.15,0.508
2014-02-24 02:25:00,5390E-2,5C000490,-0724,1375,5599,021.1,045.1,0.130,768.9,01.15,0.508
2014-02-24 02:26:00,5403E-2,5C000490,-0724,1375,5555,021.2,045.1,0.130,768.8,01.15,0.508
2014-02-24 02:27:00,5327E-2,5C000490,-0724,1375,5609,021.2,045.1,0.130,768.8,01.15,0.508
2014-02-24 02:28:00,5402E-2,5C000490,-0724,1375,5577,021.2,045.1,0.130,768.8,01.15,0.508
2014-02-24 02:29:00,5417E-2,5C000490,-0724,1375,5556,021.2,045.1,0.130,768.8,01.15,0.508
2014-02-24 02:30:00,5408E-2,5C000490,-0724,1375,5679,021.2,045.1,0.130,768.9,01.15,0.508
2014-02-24 02:31:00,5405E-2,5C000490,-0724,1375,5657,021.2,045.1,0.130,768.8,01.15,0.508
2014-02-24 02:32:00,5314E-2,5C000490,-0724,1375,5662,021.2,045.1,0.130,768.9,01.15,0.508
2014-02-24 02:33:00,5387E-2,5C000490,-0724,1375,5600,021.2,045.1,0.130,768.9,01.15,0.508
2014-02-24 02:34:00,5364E-2,5C000490,-0724,1375,5629,021.2,045.1,0.130,768.8,01.15,0.508
2014-02-24 02:35:00,5374E-2,5C000490,-0724,1375,5649,021.2,045.1,0.130,768.9,01.15,0.508
2014-02-24 02:36:00,5367E-2,5C000490,-0724,1375,5632,021.2,045.1,0.130,768.9,01.15,0.508
2014-02-24 02:37:00,5423E-2,5C000490,-0724,1375,5629,021.3,045.1,0.130,768.9,01.15,0.508
2014-02-24 02:38:00,5354E-2,5C000490,-0724,1375,5620,021.2,045.1,0.130,768.8,01.15,0.508
2014-02-24 02:39:00,5341E-2,5C000490,-0724,1375,5635,021.2,045.1,0.130,768.8,01.15,0.508
2014-02-24 02:40:00,5317E-2,5C000490,-0724,1375,5558,021.3,045.1,0.130,768.9,01.15,0.508
2014-02-24 02:41:00,5341E-2,5C000490,-0724,1375,5606,021.3,045.1,0.130,769.0,01.15,0.508
2014-02-24 02:42:00,5362E-2,5C000490,-0724,1375,5599,021.3,045.1,0.130,769.0,01.15,0.508
2014-02-24 02:43:00,5331E-2,5C000490,-0724,1375,5535,021.3,045.1,0.130,768.9,01.15,0.508
2014-02-24 02:44:00,5341E-2,5C000490,-0724,1375,5551,021.3,045.1,0.130,768.8,01.15,0.508
2014-02-24 02:45:00,5358E-2,5C000490,-0724,1375,5479,021.3,045.1,0.130,769.0,01.15,0.508
2014-02-24 02:46:00,5435E-2,5C000490,-0724,1375,5484,021.3,045.1,0.130,768.9,01.15,0.508
2014-02-24 02:47:00,5313E-2,5C000490,-0724,1375,5517,021.3,045.1,0.130,768.9,01.15,0.508
2014-02-24 02:48:00,5392E-2,5C000490,-0724,1375,5485,021.3,045.1,0.129,768.9,01.15,0.508
2014-02-24 02:49:00,5376E-2,5C000490,-0724,1375,5593,021.3,045.1,0.129,769.0,01.15,0.508
2014-02-24 02:50:00,5374E-2,5C000490,-0724,1375,5493,021.3,045.1,0.129,769.0,01.15,0.508
2014-02-24 02:51:00,5344E-2,5C000490,-0724,1375,5534,021.3,045.1,0.129,768.9,01.15,0.508
2014-02-24 02:52:00,5339E-2,5C000490,-0724,1375,5424,021.3,045.1,0.129,769.0,01.15,0.508
2014-02-24 02:53:00,5327E-2,5C000490,-0724,1375,5491,021.4,045.1,0.129,768.9,01.15,0.508
2014-02-24 02:54:00,5352E-2,5C000490,-0724,1375,5552,021.3,045.1,0.129,768.9,01.15,0.508
2014-02-24 02:55:00,5351E-2,5C000490,-0724,1375,5574,021.3,045.1,0.129,769.0,01.15,0.508
2014-02-24 02:56:00,5414E-2,5C000490,-0724,1375,5626,021.3,045.1,0.129,768.9,01.15,0.508
2014-02-24 02:57:00,5397E-2,5C000490,-0724,1375,5581,021.4,045.1,0.129,769.0,01.15,0.508
2014-02-24 02:58:00,5409E-2,5C000490,-0724,1375,5607,021.4,045.1,0.129,769.0,01.15,0.508
2014-02-24 02:59:00,5400E-2,5C000490,-0724,1375,5519,021.4,045.1,0.129,768.9,01.15,0.508
2014-02-24 03:00:00,5439E-2,5C000490,-0724,1375,5548,021.4,045.1,0.129,769.1,01.15,0.508
2014-02-24 03:01:00,5428E-2,5C000490,-0724,1375,5564,021.4,045.1,0.129,769.1,01.15,0.508
2014-02-24 03:02:00,5413E-2,5C000490,-0724,1375,5560,021.4,045.1,0.129,768.9,01.15,0.508
2014-02-24 03:03:00,5442E-2,5C000490,-0724,1375,5557,021.4,045.1,0.129,769.0,01.15,0.508
2014-02-24 03:04:00,5384E-2,5C000490,-0724,1375,5461,021.4,045.1,0.129,769.1,01.15,0.508
2014-02-24 03:05:00,5406E-2,5C000490,-0724,1375,5531,021.4,045.1,0.129,769.0,01.15,0.508
2014-02-24 03:06:00,5404E-2,5C000490,-0724,1375,5535,021.4,045.1,0.129,768.9,01.15,0.508
2014-02-24 03:07:00,5438E-2,5C000490,-0724,1375,5528,021.4,045.1,0.129,769.0,01.15,0.508
2014-02-24 03:08:00,5390E-2,5C000490,-0724,1375,5528,021.5,045.1,0.129,769.1,01.15,0.508
2014-02-24 03:09:00,5403E-2,5C000490,-0724,1375,5490,021.5,045.1,0.129,769.0,01.15,0.508
2014-02-24 03:10:00,5410E-2,5C000490,-0724,1375,5430,021.5,045.1,0.129,768.9,01.15,0.508
2014-02-24 03:11:00,5202E-2,5C000490,-0724,1375,5461,021.5,045.1,0.129,769.0,01.15,0.508
2014-02-24 03:12:00,5218E-2,5C000490,-0724,1375,5409,021.5,045.1,0.129,769.0,01.15,0.508
2014-02-24 03:13:00,5171E-2,5C000490,-0724,1375,5518,021.5,045.1,0.129,768.9,01.15,0.508
2014-02-24 03:14:00,5237E-2,5C000490,-0724,1375,5849,021.5,045.1,0.129,769.0,01.15,0.508
2014-02-24 03:15:00,5294E-2,5C000490,-0724,1375,5788,021.5,045.1,0.129,769.0,01.15,0.508
2014-02-24 03:16:00,5231E-2,5C000490,-0724,1375,5748,021.5,045.1,0.129,769.1,01.15,0.508
2014-02-24 03:17:00,5259E-2,5C000490,-0724,1375,5802,021.5,045.1,0.129,769.0,01.15,0.508
2014-02-24 03:18:00,5202E-2,5C000490,-0724,1375,5832,021.5,045.1,0.129,768.8,01.15,0.508
2014-02-24 03:19:00,5314E-2,5C000490,-0724,1375,5829,021.5,045.1,0.129,768.8,01.15,0.508
2014-02-24 03:20:00,5340E-2,5C000490,-0724,1375,5699,021.5,045.1,0.129,768.9,01.15,0.508
2014-02-24 03:21:00,5291E-2,5C000490,-0724,1375,5775,021.5,045.1,0.129,768.9,01.15,0.508
2014-02-24 03:22:00,5267E-2,5C000490,-0724,1375,5703,021.5,045.1,0.129,768.9,01.15,0.508
2014-02-24 03:23:00,5237E-2,5C000490,-0724,1375,5748,021.5,045.1,0.129,768.9,01.15,0.508
2014-02-24 03:24:00,5292E-2,5C000490,-0724,1375,5728,021.6,045.1,0.129,768.9,01.15,0.508
2014-02-24 03:25:00,5224E-2,5C000490,-0724,1375,5737,021.5,045.1,0.129,768.9,01.15,0.508
2014-02-24 03:26:00,5256E-2,5C000490,-0724,1375,5720,021.5,045.1,0.128,768.9,01.15,0.508
2014-02-24 03:27:00,5261E-2,5C000490,-0724,1375,5668,021.6,045.1,0.128,768.9,01.15,0.508
2014-02-24 03:28:00,5321E-2,5C000490,-0724,1375,5649,021.6,045.1,0.128,768.8,01.15,0.508
2014-02-24 03:29:00,5270E-2,5C000490,-0724,1375,5641,021.6,045.1,0.129,768.9,01.15,0.508
2014-02-24 03:30:00,5204E-2,5C000490,-0724,1375,5636,021.6,045.1,0.128,768.9,01.15,0.508
2014-02-24 03:31:00,5297E-2,5C000490,-0724,1375,5654,021.6,045.1,0.128,769.0,01.15,0.508
2014-02-24 03:32:00,5266E-2,5C000490,-0724,1375,5695,021.6,045.1,0.128,768.9,01.15,0.508
2014-02-24 03:33:00,5337E-2,5C000490,-0724,1375,5576,021.6,045.1,0.128,768.9,01.15,0.508
2014-02-24 03:34:00,5282E-2,5C000490,-0724,1375,5574,021.6,045.1,0.128,769.0,01.15,0.508
2014-02-24 03:35:00,5251E-2,5C000490,-0724,1375,5598,021.6,045.1,0.128,769.0,01.15,0.508
2014-02-24 03:36:00,5267E-2,5C000490,-0724,1375,5626,021.6,045.1,0.128,769.0,01.15,0.508
2014-02-24 03:37:00,5275E-2,5C000490,-0724,1375,5640,021.6,045.1,0.128,768.9,01.15,0.508
2014-02-24 03:38:00,5277E-2,5C000490,-0724,1375,5494,021.6,045.1,0.128,768.9,01.15,0.508
2014-02-24 03:39:00,5203E-2,5C000490,-0724,1375,5562,021.7,045.1,0.128,769.0,01.15,0.508
2014-02-24 03:40:00,5264E-2,5C000490,-0724,1375,5575,021.7,045.1,0.128,768.9,01.15,0.508
2014-02-24 03:41:00,5274E-2,5C000490,-0724,1375,5579,021.7,045.1,0.128,769.0,01.15,0.508
2014-02-24 03:42:00,5259E-2,5C000490,-0724,1375,5520,021.7,045.1,0.128,768.9,01.15,0.508
2014-02-24 03:43:00,5283E-2,5C000490,-0724,1375,5474,021.7,045.1,0.128,768.9,01.15,0.508
2014-02-24 03:44:00,5257E-2,5C000490,-0724,1375,5535,021.7,045.1,0.128,769.1,01.15,0.508
2014-02-24 03:45:00,5195E-2,5C000490,-0724,1375,5494,021.7,045.1,0.128,769.0,01.15,0.508
2014-02-24 03:46:00,5269E-2,5C000490,-0724,1375,5559,021.7,045.1,0.128,769.0,01.15,0.508
2014-02-24 03:47:00,5190E-2,5C000490,-0724,1375,5510,021.7,045.1,0.128,769.0,01.15,0.508
2014-02-24 03:48:00,5337E-2,5C000490,-0724,1326,9949,021.7,045.1,0.128,768.9,01.15,0.508
2014-02-24 03:49:00,5300E-2,5C000410,-0724,1153,9254,021.7,045.1,0.128,768.9,01.15,0.508
2014-02-24 03:50:00,5076E-2,5C000410,-0724,1146,9098,021.7,045.1,0.128,769.0,01.15,0.508
2014-02-24 03:51:00,5061E-2,5C000410,-0724,1150,8984,021.7,045.1,0.128,769.1,01.15,0.508
2014-02-24 03:52:00,4961E-2,5C000410,-0724,1153,9014,021.7,045.1,0.128,768.9,01.15,0.508
2014-02-24 03:53:00,5001E-2,5C000410,-0724,1154,9042,021.7,045.1,0.128,769.0,01.15,0.508
2014-02-24 03:54:00,4994E-2,5C000410,-0724,1157,8920,021.7,045.1,0.128,769.1,01.15,0.508
2014-02-24 03:55:00,5060E-2,5C000410,-0724,1162,8906,021.8,045.1,0.128,769.1,01.15,0.508
2014-02-24 03:56:00,5081E-2,5C000410,-0724,1166,8850,021.8,045.1,0.128,769.1,01.15,0.508
2014-02-24 03:57:00,5106E-2,5C000410,-0724,1168,8874,021.8,045.1,0.128,769.1,01.15,0.508
2014-02-24 03:58:00,5124E-2,5C000410,-0724,1171,8777,021.8,045.1,0.128,769.0,01.15,0.508
2014-02-24 03:59:00,5227E-2,5C000410,-0724,1175,8793,021.8,045.1,0.128,768.9,01.15,0.508
2014-02-24 04:00:00,5223E-2,5C000410,-0724,1177,8785,021.8,045.1,0.128,769.1,01.15,0.508
2014-02-24 04:01:00,5256E-2,5C000410,-0724,1180,8785,021.8,045.1,0.127,769.1,01.15,0.508
2014-02-24 04:02:00,5274E-2,5C000410,-0724,1183,8633,021.8,045.1,0.127,769.0,01.15,0.508
2014-02-24 04:03:00,5205E-2,5C000410,-0724,1186,8748,021.8,045.1,0.127,769.1,01.15,0.508
2014-02-24 04:04:00,5294E-2,5C000410,-0724,1187,8716,021.8,045.1,0.127,769.1,01.15,0.508
2014-02-24 04:05:00,5292E-2,5C000410,-0724,1189,8667,021.8,045.1,0.127,769.1,01.15,0.508
2014-02-24 04:06:00,5263E-2,5C000410,-0724,1193,8670,021.8,045.1,0.127,768.9,01.15,0.508
2014-02-24 04:07:00,5284E-2,5C000410,-0724,1195,8589,021.8,045.1,0.127,769.1,01.15,0.508
2014-02-24 04:08:00,5251E-2,5C000410,-0724,1197,8557,021.9,045.1,0.127,769.1,01.15,0.508
2014-02-24 04:09:00,5268E-2,5C000410,-0724,1199,8487,021.8,045.1,0.127,769.1,01.15,0.508
2014-02-24 04:10:00,5353E-2,5C000490,-0724,1202,8484,021.8,045.1,0.127,769.0,01.15,0.508
2014-02-24 04:11:00,5333E-2,5C000490,-0724,1204,8506,021.9,045.1,0.127,768.9,01.15,0.508
2014-02-24 04:12:00,5281E-2,5C000490,-0724,1206,8479,021.9,045.1,0.127,769.0,01.15,0.508
2014-02-24 04:13:00,5317E-2,5C000490,-0724,1207,8484,021.9,045.1,0.127,769.1,01.15,0.508
2014-02-24 04:14:00,5376E-2,5C000490,-0724,1208,8426,021.9,045.1,0.127,769.1,01.15,0.508
2014-02-24 04:15:00,5353E-2,5C000490,-0724,1210,8257,021.9,045.1,0.127,769.0,01.15,0.508
2014-02-24 04:16:00,5312E-2,5C000490,-0724,1211,8523,021.9,045.1,0.127,769.0,01.15,0.508
2014-02-24 04:17:00,5305E-2,5C000490,-0724,1212,8439,021.9,045.1,0.127,769.1,01.15,0.508
2014-02-24 04:18:00,5331E-2,5C000490,-0724,1213,8420,021.9,045.1,0.127,769.1,01.15,0.508
2014-02-24 04:19:00,5299E-2,5C000490,-0724,1216,8403,021.9,045.1,0.127,769.1,01.15,0.508
2014-02-24 04:20:00,5285E-2,5C000490,-0724,1218,8377,021.9,045.1,0.127,769.1,01.15,0.508
2014-02-24 04:21:00,5318E-2,5C000490,-0724,1222,8347,021.9,045.1,0.127,769.1,01.15,0.508
2014-02-24 04:22:00,5369E-2,5C000490,-0724,1225,8325,021.9,045.1,0.127,769.1,01.15,0.508
2014-02-24 04:23:00,5283E-2,5C000490,-0724,1225,8136,022.0,045.1,0.127,769.1,01.15,0.508